TimeEST,TemperatureF,Dew PointF,Humidity,Sea Level PressureIn,VisibilityMPH,Wind Direction,Wind SpeedMPH,Gust SpeedMPH,PrecipitationIn,Events,Conditions,WindDirDegrees,DateUTC
12:53 AM,37.0,36.0,96,30.26,10.0,Calm,Calm,-,N/A,,Clear,0,2012-11-16 05:53:00
1:53 AM,35.1,34.0,96,30.27,10.0,Calm,Calm,-,N/A,,Clear,0,2012-11-16 06:53:00
2:53 AM,34.0,34.0,100,30.27,8.0,Calm,Calm,-,N/A,,Clear,0,2012-11-16 07:53:00
3:53 AM,33.1,32.0,96,30.27,10.0,Calm,Calm,-,N/A,,Clear,0,2012-11-16 08:53:00
4:53 AM,32.0,30.0,92,30.27,10.0,Calm,Calm,-,N/A,,Clear,0,2012-11-16 09:53:00
5:53 AM,32.0,30.0,92,30.29,10.0,Calm,Calm,-,N/A,,Clear,0,2012-11-16 10:53:00
6:53 AM,30.2,30.2,100,30.30,10.0,Calm,Calm,-,N/A,,Clear,0,2012-11-16 11:53:00
7:53 AM,32.0,30.9,96,30.31,9.0,Calm,Calm,-,N/A,,Clear,0,2012-11-16 12:53:00
8:53 AM,37.9,36.0,93,30.33,10.0,Calm,Calm,-,N/A,,Clear,0,2012-11-16 13:53:00
9:53 AM,45.0,37.9,76,30.33,10.0,Calm,Calm,-,N/A,,Clear,0,2012-11-16 14:53:00
10:53 AM,51.1,39.0,63,30.34,10.0,Calm,Calm,-,N/A,,Clear,0,2012-11-16 15:53:00
11:53 AM,55.0,37.9,53,30.32,10.0,Calm,Calm,-,N/A,,Clear,0,2012-11-16 16:53:00
12:53 PM,59.0,36.0,42,30.29,10.0,Calm,Calm,-,N/A,,Clear,0,2012-11-16 17:53:00
1:53 PM,61.0,36.0,39,30.26,10.0,Calm,Calm,-,N/A,,Clear,0,2012-11-16 18:53:00
2:53 PM,62.1,35.1,37,30.25,10.0,Calm,Calm,-,N/A,,Clear,0,2012-11-16 19:53:00
3:53 PM,63.0,35.1,35,30.25,10.0,Variable,5.8,-,N/A,,Clear,0,2012-11-16 20:53:00
4:53 PM,60.1,30.9,33,30.25,10.0,North,5.8,-,N/A,,Clear,10,2012-11-16 21:53:00
5:53 PM,54.0,30.0,40,30.27,10.0,NNW,3.5,-,N/A,,Clear,340,2012-11-16 22:53:00
6:53 PM,46.9,33.1,59,30.29,10.0,Calm,Calm,-,N/A,,Clear,0,2012-11-16 23:53:00
7:53 PM,44.1,35.1,71,30.30,10.0,Calm,Calm,-,N/A,,Clear,0,2012-11-17 00:53:00
8:53 PM,39.9,35.1,83,30.30,10.0,NE,3.5,-,N/A,,Clear,40,2012-11-17 01:53:00
9:53 PM,36.0,33.1,89,30.32,10.0,Calm,Calm,-,N/A,,Clear,0,2012-11-17 02:53:00
10:53 PM,35.1,32.0,89,30.32,10.0,Calm,Calm,-,N/A,,Clear,0,2012-11-17 03:53:00
11:53 PM,36.0,32.0,86,30.32,10.0,Calm,Calm,-,N/A,,Clear,0,2012-11-17 04:53:00